QPF
0.02 0.01 0.01 0.01 0.01 0.02 0.02 0.02 0.02 0.02 0.03 0.03 0.03 0.03 0.03 0.03 0.03 0.05 0.06 0.06 0.08 0.09 0.10 0.12 0.15 0.13 0.12 0.14 0.15 0.15 0.15 0.16 0.14 0.15 0.14 0.14 0.14 0.14 0.12 0.08 0.07 0.06 0.06
0.02 0.01 0.01 0.02 0.01 0.01 0.01 0.02 0.02 0.02 0.02 0.03 0.03 0.03 0.03 0.02 0.02 0.03 0.06 0.06 0.06 0.05 0.06 0.09 0.10 0.13 0.14 0.14 0.15 0.14 0.13 0.15 0.14 0.13 0.13 0.14 0.15 0.12 0.10 0.09 0.10 0.10 0.10
0.01 0.02 0.02 0.02 0.01 0.01 0.02 0.02 0.02 0.02 0.02 0.03 0.03 0.04 0.03 0.03 0.03 0.04 0.05 0.06 0.06 0.05 0.05 0.06 0.11 0.18 0.17 0.14 0.12 0.10 0.10 0.12 0.11 0.12 0.11 0.12 0.13 0.10 0.07 0.07 0.09 0.09 0.08
0.01 0.02 0.02 0.02 0.01 0.02 0.02 0.02 0.02 0.02 0.02 0.02 0.03 0.04 0.04 0.04 0.04 0.04 0.04 0.05 0.04 0.04 0.05 0.07 0.13 0.16 0.18 0.18 0.14 0.13 0.11 0.11 0.10 0.09 0.10 0.08 0.08 0.08 0.08 0.08 0.06 0.06 0.06
0.02 0.02 0.01 0.01 0.01 0.02 0.02 0.01 0.01 0.01 0.01 0.02 0.02 0.03 0.04 0.04 0.04 0.04 0.04 0.04 0.03 0.03 0.05 0.10 0.14 0.12 0.12 0.12 0.10 0.11 0.10 0.10 0.10 0.10 0.11 0.10 0.09 0.09 0.09 0.10 0.08 0.07 0.06
0.02 0.01 0.01 0.01 0.02 0.02 0.01 0.01 0.02 0.02 0.02 0.01 0.01 0.02 0.03 0.03 0.04 0.04 0.04 0.02 0.01 0.02 0.03 0.06 0.08 0.08 0.07 0.08 0.09 0.10 0.10 0.11 0.12 0.12 0.10 0.10 0.10 0.10 0.10 0.09 0.09 0.08 0.05
0.01 0.01 0.02 0.02 0.02 0.02 0.02 0.02 0.03 0.03 0.02 0.02 0.03 0.03 0.04 0.04 0.03 0.03 0.03 0.02 0.01 0.02 0.03 0.04 0.07 0.11 0.11 0.09 0.07 0.07 0.08 0.10 0.10 0.11 0.11 0.10 0.10 0.10 0.10 0.08 0.07 0.07 0.06
0.00 0.01 0.01 0.01 0.02 0.02 0.01 0.01 0.01 0.02 0.03 0.05 0.04 0.04 0.03 0.03 0.03 0.04 0.03 0.02 0.01 0.01 0.03 0.05 0.08 0.09 0.09 0.07 0.07 0.06 0.05 0.07 0.08 0.08 0.11 0.13 0.12 0.10 0.09 0.09 0.09 0.09 0.08
0.00 0.00 0.00 0.01 0.01 0.00 0.00 0.00 0.01 0.03 0.07 0.09 0.05 0.03 0.03 0.02 0.03 0.03 0.03 0.03 0.02 0.02 0.03 0.03 0.05 0.06 0.06 0.05 0.05 0.06 0.08 0.09 0.09 0.08 0.10 0.10 0.09 0.08 0.07 0.08 0.10 0.09 0.08
0.00 0.00 0.00 0.00 0.00 0.00 0.00 0.00 0.01 0.01 0.04 0.06 0.05 0.03 0.02 0.02 0.02 0.02 0.02 0.02 0.03 0.03 0.03 0.03 0.04 0.05 0.06 0.06 0.06 0.07 0.09 0.09 0.08 0.09 0.09 0.09 0.06 0.06 0.06 0.06 0.05 0.05 0.07
0.00 0.00 0.00 0.00 0.00 0.00 0.00 0.00 0.00 0.00 0.00 0.01 0.01 0.01 0.01 0.01 0.02 0.02 0.02 0.03 0.04 0.03 0.03 0.03 0.04 0.05 0.05 0.06 0.06 0.07 0.08 0.07 0.08 0.07 0.07 0.07 0.05 0.05 0.06 0.07 0.05 0.04 0.06
0.00 0.00 0.00 0.00 0.00 0.00 0.00 0.00 0.00 0.01 0.01 0.01 0.01 0.01 0.01 0.02 0.02 0.03 0.03 0.04 0.04 0.04 0.04 0.04 0.04 0.04 0.05 0.05 0.06 0.07 0.07 0.06 0.06 0.05 0.06 0.06 0.06 0.07 0.08 0.08 0.07 0.06 0.07
0.00 0.00 0.00 0.00 0.00 0.01 0.01 0.00 0.01 0.01 0.00 0.00 0.00 0.01 0.02 0.03 0.04 0.04 0.03 0.03 0.03 0.04 0.04 0.04 0.03 0.04 0.04 0.06 0.06 0.06 0.06 0.06 0.04 0.04 0.05 0.05 0.06 0.08 0.09 0.07 0.07 0.07 0.06
0.00 0.00 0.00 0.01 0.01 0.01 0.01 0.01 0.01 0.01 0.01 0.01 0.01 0.01 0.02 0.03 0.04 0.05 0.05 0.03 0.03 0.03 0.03 0.03 0.03 0.04 0.04 0.05 0.05 0.05 0.06 0.06 0.05 0.06 0.06 0.07 0.07 0.08 0.09 0.11 0.11 0.08 0.08
0.00 0.00 0.01 0.01 0.00 0.00 0.01 0.01 0.00 0.01 0.01 0.01 0.01 0.02 0.02 0.03 0.04 0.05 0.04 0.04 0.03 0.03 0.03 0.03 0.03 0.03 0.02 0.02 0.04 0.04 0.05 0.06 0.05 0.07 0.08 0.07 0.07 0.08 0.10 0.08 0.07 0.07 0.09
0.00 0.00 0.00 0.00 0.00 0.00 0.00 0.00 0.01 0.01 0.01 0.01 0.02 0.02 0.03 0.04 0.03 0.03 0.03 0.03 0.04 0.04 0.04 0.03 0.03 0.02 0.01 0.01 0.02 0.04 0.04 0.05 0.05 0.06 0.07 0.06 0.05 0.03 0.05 0.08 0.08 0.09 0.10
0.00 0.00 0.00 0.00 0.00 0.00 0.00 0.01 0.01 0.01 0.01 0.01 0.02 0.03 0.03 0.03 0.02 0.02 0.02 0.03 0.03 0.04 0.04 0.04 0.03 0.02 0.02 0.03 0.03 0.03 0.04 0.04 0.05 0.05 0.05 0.04 0.02 0.02 0.04 0.06 0.06 0.07 0.09
0.00 0.00 0.00 0.00 0.01 0.01 0.01 0.01 0.01 0.02 0.02 0.02 0.03 0.04 0.03 0.03 0.03 0.03 0.03 0.04 0.04 0.04 0.03 0.02 0.02 0.02 0.03 0.04 0.03 0.03 0.03 0.04 0.04 0.04 0.03 0.04 0.04 0.04 0.05 0.06 0.06 0.06 0.04
0.00 0.00 0.00 0.01 0.01 0.02 0.02 0.01 0.02 0.03 0.03 0.03 0.03 0.04 0.04 0.04 0.03 0.04 0.04 0.04 0.04 0.03 0.03 0.02 0.02 0.03 0.03 0.03 0.03 0.03 0.03 0.04 0.05 0.05 0.05 0.04 0.03 0.03 0.04 0.06 0.07 0.06 0.05
0.00 0.00 0.01 0.01 0.02 0.02 0.02 0.03 0.03 0.03 0.03 0.03 0.04 0.04 0.05 0.05 0.06 0.06 0.05 0.04 0.04 0.04 0.03 0.03 0.03 0.03 0.03 0.03 0.03 0.03 0.03 0.03 0.03 0.04 0.05 0.03 0.02 0.03 0.03 0.03 0.06 0.06 0.05
0.01 0.01 0.01 0.02 0.02 0.03 0.03 0.04 0.03 0.03 0.02 0.02 0.03 0.03 0.04 0.05 0.05 0.05 0.05 0.04 0.04 0.04 0.04 0.03 0.03 0.03 0.03 0.03 0.03 0.04 0.03 0.03 0.02 0.02 0.02 0.02 0.02 0.02 0.02 0.03 0.05 0.05 0.05
0.01 0.01 0.01 0.02 0.03 0.03 0.04 0.04 0.05 0.05 0.04 0.03 0.03 0.04 0.04 0.04 0.04 0.04 0.03 0.04 0.04 0.04 0.03 0.03 0.03 0.03 0.03 0.03 0.02 0.03 0.03 0.03 0.03 0.03 0.02 0.03 0.04 0.03 0.03 0.03 0.04 0.06 0.06
0.02 0.01 0.01 0.02 0.03 0.03 0.04 0.03 0.02 0.02 0.02 0.02 0.02 0.03 0.03 0.04 0.04 0.04 0.04 0.03 0.03 0.03 0.03 0.03 0.03 0.02 0.02 0.03 0.02 0.02 0.02 0.02 0.02 0.02 0.03 0.04 0.04 0.03 0.03 0.03 0.04 0.06 0.06
0.03 0.02 0.02 0.03 0.02 0.02 0.02 0.02 0.01 0.02 0.02 0.02 0.02 0.02 0.03 0.03 0.03 0.03 0.04 0.03 0.03 0.02 0.03 0.03 0.02 0.03 0.03 0.04 0.03 0.02 0.03 0.03 0.02 0.02 0.02 0.04 0.03 0.02 0.02 0.02 0.03 0.04 0.04
0.04 0.03 0.03 0.02 0.02 0.02 0.02 0.02 0.02 0.02 0.03 0.03 0.03 0.03 0.02 0.04 0.04 0.04 0.04 0.04 0.04 0.03 0.02 0.02 0.03 0.04 0.06 0.06 0.05 0.04 0.04 0.04 0.04 0.04 0.03 0.03 0.04 0.03 0.03 0.02 0.03 0.04 0.05
0.03 0.04 0.03 0.02 0.02 0.02 0.01 0.02 0.02 0.03 0.04 0.06 0.06 0.05 0.03 0.04 0.07 0.07 0.05 0.05 0.05 0.05 0.04 0.03 0.04 0.06 0.06 0.05 0.05 0.04 0.04 0.04 0.04 0.05 0.04 0.04 0.05 0.04 0.03 0.03 0.03 0.04 0.05
MSLP
1010.10 1010.54 1010.85 1011.05 1011.20 1011.35 1011.57 1011.89 1012.31 1012.82 1013.36 1013.89 1014.35 1014.71 1014.95 1015.08 1015.12 1015.12 1015.12 1015.15 1015.24 1015.38 1015.55 1015.73 1015.90 1016.01 1016.07 1016.08 1016.04 1015.97 1015.89 1015.81 1015.72 1015.59 1015.41 1015.15 1014.80 1014.34 1013.82 1013.28 1012.78 1012.37 1012.12
1010.02 1010.53 1010.88 1011.08 1011.21 1011.32 1011.50 1011.78 1012.19 1012.70 1013.27 1013.84 1014.33 1014.70 1014.92 1014.99 1014.96 1014.87 1014.79 1014.76 1014.82 1014.96 1015.17 1015.42 1015.65 1015.84 1015.95 1015.99 1015.97 1015.92 1015.85 1015.79 1015.73 1015.67 1015.57 1015.39 1015.12 1014.74 1014.26 1013.71 1013.18 1012.71 1012.37
1009.68 1010.26 1010.67 1010.92 1011.05 1011.15 1011.30 1011.54 1011.94 1012.45 1013.04 1013.64 1014.16 1014.56 1014.79 1014.85 1014.78 1014.64 1014.50 1014.41 1014.43 1014.56 1014.78 1015.06 1015.34 1015.57 1015.73 1015.80 1015.80 1015.75 1015.70 1015.66 1015.64 1015.64 1015.63 1015.55 1015.38 1015.10 1014.69 1014.19 1013.66 1013.15 1012.75
1009.06 1009.74 1010.25 1010.57 1010.75 1010.87 1011.00 1011.23 1011.60 1012.10 1012.70 1013.32 1013.89 1014.33 1014.59 1014.67 1014.59 1014.42 1014.24 1014.10 1014.07 1014.16 1014.37 1014.64 1014.94 1015.19 1015.37 1015.47 1015.49 1015.45 1015.41 1015.39 1015.41 1015.47 1015.53 1015.55 1015.49 1015.32 1015.01 1014.59 1014.10 1013.60 1013.16
1008.22 1009.02 1009.65 1010.08 1010.35 1010.51 1010.66 1010.87 1011.21 1011.70 1012.29 1012.92 1013.52 1014.01 1014.32 1014.44 1014.38 1014.21 1014.00 1013.82 1013.73 1013.77 1013.92 1014.16 1014.44 1014.70 1014.89 1015.00 1015.03 1015.02 1014.99 1014.98 1015.03 1015.12 1015.24 1015.35 1015.39 1015.33 1015.13 1014.80 1014.38 1013.92 1013.48
1007.22 1008.14 1008.92 1009.50 1009.88 1010.12 1010.30 1010.51 1010.82 1011.27 1011.83 1012.46 1013.08 1013.61 1013.97 1014.14 1014.12 1013.97 1013.74 1013.52 1013.38 1013.35 1013.44 1013.63 1013.87 1014.11 1014.30 1014.43 1014.48 1014.47 1014.45 1014.46 1014.51 1014.62 1014.78 1014.93 1015.05 1015.08 1014.98 1014.76 1014.43 1014.03 1013.63
1006.15 1007.19 1008.11 1008.85 1009.37 1009.70 1009.93 1010.14 1010.43 1010.83 1011.35 1011.95 1012.57 1013.12 1013.53 1013.75 1013.78 1013.65 1013.43 1013.18 1012.99 1012.89 1012.91 1013.04 1013.24 1013.46 1013.66 1013.79 1013.86 1013.88 1013.87 1013.87 1013.92 1014.02 1014.18 1014.35 1014.50 1014.59 1014.58 1014.46 1014.23 1013.91 1013.57
1005.08 1006.21 1007.28 1008.17 1008.83 1009.27 1009.55 1009.77 1010.02 1010.36 1010.82 1011.38 1011.98 1012.53 1012.97 1013.24 1013.32 1013.23 1013.02 1012.77 1012.54 1012.39 1012.36 1012.44 1012.60 1012.81 1013.01 1013.17 1013.26 1013.30 1013.30 1013.30 1013.33 1013.40 1013.52 1013.67 1013.83 1013.95 1014.00 1013.95 1013.81 1013.59 1013.32
1004.06 1005.27 1006.45 1007.47 1008.25 1008.79 1009.13 1009.36 1009.57 1009.86 1010.25 1010.75 1011.30 1011.84 1012.30 1012.61 1012.74 1012.69 1012.52 1012.28 1012.04 1011.87 1011.80 1011.85 1011.99 1012.20 1012.41 1012.60 1012.73 1012.80 1012.81 1012.80 1012.80 1012.82 1012.89 1013.00 1013.13 1013.25 1013.33 1013.34 1013.28 1013.15 1012.97
1003.16 1004.38 1005.63 1006.74 1007.61 1008.23 1008.62 1008.86 1009.05 1009.28 1009.61 1010.04 1010.54 1011.06 1011.53 1011.87 1012.04 1012.05 1011.93 1011.72 1011.50 1011.33 1011.26 1011.30 1011.44 1011.66 1011.90 1012.13 1012.30 1012.40 1012.43 1012.41 1012.38 1012.35 1012.36 1012.40 1012.48 1012.58 1012.67 1012.73 1012.73 1012.69 1012.59
1002.38 1003.56 1004.81 1005.95 1006.88 1007.55 1007.97 1008.23 1008.41 1008.61 1008.88 1009.26 1009.72 1010.21 1010.67 1011.04 1011.26 1011.33 1011.27 1011.12 1010.95 1010.81 1010.76 1010.82 1010.98 1011.22 1011.50 1011.76 1011.97 1012.10 1012.15 1012.13 1012.07 1012.00 1011.95 1011.94 1011.97 1012.03 1012.12 1012.20 1012.26 1012.28 1012.27
1001.71 1002.80 1003.99 1005.10 1006.03 1006.72 1007.18 1007.46 1007.64 1007.83 1008.08 1008.42 1008.85 1009.33 1009.79 1010.18 1010.45 1010.59 1010.59 1010.52 1010.40 1010.32 1010.31 1010.40 1010.59 1010.85 1011.16 1011.45 1011.69 1011.85 1011.92 1011.90 1011.83 1011.73 1011.64 1011.58 1011.57 1011.61 1011.69 1011.79 1011.89 1011.97 1012.01
1001.14 1002.08 1003.15 1004.18 1005.06 1005.74 1006.22 1006.53 1006.75 1006.96 1007.22 1007.56 1007.98 1008.45 1008.93 1009.34 1009.66 1009.85 1009.93 1009.93 1009.89 1009.87 1009.90 1010.03 1010.24 1010.53 1010.84 1011.15 1011.41 1011.58 1011.66 1011.65 1011.58 1011.47 1011.36 1011.28 1011.25 1011.28 1011.36 1011.48 1011.61 1011.73 1011.82
1000.63 1001.38 1002.28 1003.18 1003.99 1004.64 1005.14 1005.50 1005.77 1006.04 1006.34 1006.72 1007.16 1007.64 1008.13 1008.57 1008.92 1009.17 1009.32 1009.39 1009.41 1009.45 1009.53 1009.68 1009.91 1010.19 1010.51 1010.81 1011.06 1011.23 1011.32 1011.31 1011.25 1011.14 1011.04 1010.97 1010.94 1010.98 1011.07 1011.21 1011.36 1011.51 1011.64
1000.15 1000.69 1001.39 1002.14 1002.85 1003.48 1003.99 1004.41 1004.77 1005.12 1005.50 1005.93 1006.42 1006.93 1007.43 1007.89 1008.28 1008.57 1008.76 1008.89 1008.97 1009.06 1009.17 1009.34 1009.56 1009.83 1010.11 1010.38 1010.61 1010.77 1010.84 1010.85 1010.79 1010.71 1010.63 1010.59 1010.59 1010.65 1010.76 1010.91 1011.08 1011.25 1011.40
999.69 1000.03 1000.53 1001.12 1001.73 1002.32 1002.86 1003.35 1003.81 1004.27 1004.75 1005.26 1005.79 1006.34 1006.86 1007.33 1007.73 1008.04 1008.27 1008.44 1008.56 1008.68 1008.81 1008.98 1009.18 1009.42 1009.66 1009.88 1010.07 1010.19 1010.25 1010.26 1010.22 1010.17 1010.13 1010.12 1010.15 1010.24 1010.38 1010.55 1010.73 1010.91 1011.06
999.25 999.41 999.74 1000.18 1000.71 1001.27 1001.83 1002.40 1002.97 1003.55 1004.13 1004.73 1005.32 1005.89 1006.42 1006.89 1007.29 1007.60 1007.85 1008.03 1008.18 1008.31 1008.45 1008.62 1008.80 1008.99 1009.18 1009.35 1009.49 1009.57 1009.61 1009.61 1009.59 1009.56 1009.55 1009.58 1009.65 1009.77 1009.93 1010.11 1010.29 1010.46 1010.60
998.87 998.90 999.09 999.43 999.88 1000.42 1001.03 1001.67 1002.34 1003.02 1003.70 1004.36 1005.00 1005.58 1006.10 1006.56 1006.93 1007.23 1007.47 1007.66 1007.82 1007.96 1008.11 1008.27 1008.43 1008.59 1008.74 1008.86 1008.95 1008.99 1009.01 1009.00 1008.98 1008.98 1009.00 1009.05 1009.15 1009.28 1009.43 1009.60 1009.77 1009.92 1010.03
998.61 998.56 998.67 998.94 999.35 999.89 1000.52 1001.23 1001.97 1002.73 1003.48 1004.18 1004.83 1005.41 1005.90 1006.32 1006.65 1006.92 1007.14 1007.32 1007.48 1007.64 1007.80 1007.96 1008.12 1008.26 1008.38 1008.47 1008.53 1008.55 1008.54 1008.52 1008.50 1008.50 1008.53 1008.59 1008.69 1008.81 1008.95 1009.09 1009.22 1009.33 1009.40
998.53 998.47 998.55 998.78 999.17 999.71 1000.36 1001.11 1001.90 1002.69 1003.46 1004.17 1004.81 1005.35 1005.79 1006.15 1006.43 1006.65 1006.84 1007.01 1007.18 1007.36 1007.54 1007.72 1007.89 1008.04 1008.15 1008.23 1008.27 1008.28 1008.26 1008.23 1008.20 1008.19 1008.20 1008.25 1008.32 1008.41 1008.51 1008.60 1008.67 1008.72 1008.75
998.69 998.66 998.76 998.99 999.38 999.91 1000.57 1001.32 1002.11 1002.90 1003.65 1004.33 1004.91 1005.38 1005.75 1006.03 1006.25 1006.42 1006.58 1006.75 1006.92 1007.12 1007.33 1007.54 1007.74 1007.92 1008.05 1008.15 1008.19 1008.19 1008.16 1008.12 1008.07 1008.04 1008.02 1008.03 1008.05 1008.09 1008.12 1008.14 1008.15 1008.13 1008.10
999.12 999.17 999.31 999.57 999.96 1000.48 1001.12 1001.84 1002.59 1003.33 1004.02 1004.61 1005.11 1005.49 1005.77 1005.96 1006.11 1006.23 1006.36 1006.51 1006.70 1006.92 1007.16 1007.42 1007.67 1007.88 1008.05 1008.17 1008.22 1008.23 1008.20 1008.14 1008.07 1008.00 1007.94 1007.89 1007.84 1007.81 1007.76 1007.71 1007.64 1007.56 1007.46
999.81 999.97 1000.17 1000.46 1000.85 1001.36 1001.95 1002.60 1003.28 1003.92 1004.51 1005.00 1005.38 1005.65 1005.83 1005.94 1006.01 1006.09 1006.18 1006.33 1006.52 1006.76 1007.04 1007.34 1007.62 1007.88 1008.08 1008.22 1008.30 1008.32 1008.28 1008.20 1008.10 1007.99 1007.87 1007.75 1007.64 1007.52 1007.41 1007.28 1007.14 1007.00 1006.85
1000.72 1000.97 1001.24 1001.57 1001.96 1002.43 1002.96 1003.52 1004.09 1004.61 1005.07 1005.43 1005.69 1005.84 1005.92 1005.95 1005.96 1005.99 1006.06 1006.19 1006.39 1006.65 1006.95 1007.27 1007.58 1007.86 1008.09 1008.25 1008.33 1008.35 1008.30 1008.21 1008.07 1007.91 1007.74 1007.56 1007.38 1007.20 1007.02 1006.83 1006.65 1006.46 1006.28
1001.73 1002.08 1002.42 1002.77 1003.15 1003.57 1004.03 1004.49 1004.93 1005.32 1005.63 1005.86 1006.00 1006.05 1006.05 1006.01 1005.97 1005.96 1006.01 1006.13 1006.32 1006.58 1006.89 1007.21 1007.53 1007.81 1008.04 1008.20 1008.28 1008.28 1008.22 1008.10 1007.93 1007.74 1007.52 1007.30 1007.07 1006.84 1006.61 1006.39 1006.18 1005.97 1005.78
1002.73 1003.16 1003.55 1003.92 1004.29 1004.66 1005.03 1005.38 1005.70 1005.96 1006.15 1006.26 1006.29 1006.26 1006.19 1006.11 1006.04 1006.01 1006.05 1006.16 1006.34 1006.59 1006.87 1007.18 1007.47 1007.73 1007.94 1008.07 1008.13 1008.12 1008.04 1007.89 1007.70 1007.48 1007.24 1006.99 1006.73 1006.48 1006.24 1006.02 1005.81 1005.61 1005.43
Thickness
5839 5837 5834 5830 5824 5818 5813 5809 5806 5803 5801 5797 5793 5791 5790 5791 5790 5790 5787 5785 5783 5782 5780 5779 5778 5778 5776 5774 5773 5772 5770 5769 5771 5767 5766 5771 5775 5776 5777 5777 5775 5774 5773
5837 5835 5833 5830 5825 5818 5814 5809 5806 5803 5801 5798 5796 5794 5792 5791 5791 5790 5787 5785 5783 5782 5781 5778 5777 5776 5774 5772 5771 5770 5767 5767 5769 5764 5759 5756 5761 5768 5774 5774 5773 5773 5772
5838 5835 5832 5830 5826 5820 5815 5811 5807 5804 5801 5800 5797 5795 5793 5790 5788 5787 5786 5785 5784 5782 5780 5779 5776 5775 5774 5771 5769 5768 5765 5762 5765 5766 5759 5751 5748 5756 5765 5769 5771 5770 5768
5846 5839 5834 5830 5827 5823 5819 5813 5808 5804 5802 5800 5796 5792 5787 5784 5785 5786 5785 5784 5783 5781 5780 5778 5776 5774 5773 5770 5769 5768 5766 5763 5760 5762 5763 5761 5759 5752 5752 5760 5765 5766 5765
5850 5842 5838 5833 5830 5826 5821 5815 5809 5805 5802 5799 5796 5792 5789 5787 5787 5787 5784 5783 5782 5780 5779 5777 5775 5772 5771 5769 5768 5766 5764 5763 5760 5758 5758 5758 5758 5757 5751 5747 5753 5758 5761
5850 5844 5841 5836 5830 5827 5822 5815 5809 5804 5801 5798 5795 5791 5788 5786 5784 5783 5781 5781 5780 5779 5778 5776 5773 5771 5769 5768 5766 5765 5763 5761 5760 5758 5757 5755 5753 5752 5751 5747 5748 5750 5755
5849 5842 5837 5833 5828 5824 5820 5815 5808 5802 5800 5797 5794 5792 5789 5786 5783 5781 5780 5778 5777 5776 5775 5775 5771 5769 5767 5766 5765 5763 5761 5760 5758 5756 5755 5755 5754 5754 5751 5746 5746 5747 5750
5850 5844 5838 5833 5828 5824 5819 5814 5808 5803 5799 5796 5793 5791 5788 5785 5783 5781 5779 5777 5776 5776 5775 5772 5770 5767 5765 5764 5762 5760 5759 5757 5756 5755 5753 5752 5752 5752 5750 5746 5742 5739 5741
5849 5844 5839 5833 5828 5823 5819 5815 5809 5803 5799 5796 5792 5789 5786 5783 5781 5780 5779 5777 5775 5775 5772 5770 5767 5764 5762 5760 5758 5756 5754 5753 5752 5751 5750 5748 5748 5749 5748 5747 5743 5736 5731
5846 5842 5837 5832 5828 5824 5820 5815 5809 5803 5799 5796 5792 5789 5785 5783 5780 5778 5775 5774 5773 5771 5768 5766 5763 5761 5759 5756 5753 5752 5750 5748 5747 5747 5745 5744 5744 5744 5744 5744 5742 5739 5733
5844 5839 5835 5831 5827 5823 5818 5812 5808 5802 5797 5794 5791 5787 5784 5781 5778 5775 5773 5771 5769 5767 5764 5762 5759 5757 5755 5752 5749 5747 5746 5743 5742 5741 5741 5739 5739 5738 5738 5738 5737 5735 5732
5842 5837 5833 5828 5823 5819 5815 5809 5804 5800 5796 5792 5788 5784 5782 5779 5775 5772 5770 5768 5765 5764 5761 5758 5755 5753 5751 5749 5746 5743 5741 5739 5737 5736 5735 5734 5734 5732 5731 5730 5729 5729 5728
5835 5830 5826 5821 5817 5813 5809 5805 5801 5797 5794 5790 5785 5781 5778 5775 5771 5768 5766 5764 5761 5759 5757 5753 5750 5748 5746 5744 5742 5740 5737 5736 5734 5733 5731 5729 5727 5725 5724 5723 5722 5722 5723
5825 5821 5817 5814 5811 5808 5804 5801 5797 5794 5791 5787 5781 5777 5774 5771 5768 5765 5761 5759 5757 5754 5751 5749 5746 5744 5742 5739 5737 5735 5733 5731 5730 5729 5727 5725 5722 5719 5718 5717 5716 5715 5713
5815 5812 5809 5806 5804 5801 5799 5796 5793 5790 5787 5782 5777 5773 5770 5767 5763 5760 5757 5754 5751 5750 5747 5744 5741 5739 5737 5734 5731 5729 5729 5726 5725 5723 5722 5720 5719 5716 5713 5712 5709 5708 5706
5807 5805 5803 5799 5796 5794 5792 5790 5787 5785 5781 5776 5772 5768 5764 5761 5756 5754 5751 5748 5745 5743 5740 5738 5735 5732 5730 5727 5725 5723 5722 5720 5718 5716 5716 5715 5713 5711 5709 5706 5704 5702 5699
5802 5799 5796 5793 5791 5789 5787 5783 5780 5778 5773 5769 5765 5762 5758 5754 5751 5749 5745 5742 5738 5736 5733 5731 5728 5725 5722 5720 5718 5717 5715 5713 5712 5711 5709 5709 5709 5705 5702 5700 5698 5697 5696
5794 5792 5790 5788 5786 5784 5781 5777 5773 5769 5765 5761 5757 5754 5751 5747 5744 5741 5737 5734 5732 5729 5726 5724 5722 5719 5716 5713 5711 5709 5708 5707 5706 5706 5704 5701 5699 5698 5694 5693 5692 5691 5691
5787 5786 5784 5782 5779 5775 5771 5768 5763 5760 5756 5752 5749 5746 5743 5739 5736 5733 5729 5727 5725 5722 5720 5718 5716 5713 5710 5707 5705 5702 5701 5701 5700 5700 5699 5696 5693 5690 5687 5685 5684 5684 5684
5779 5777 5775 5773 5768 5766 5763 5758 5753 5749 5746 5744 5741 5739 5736 5732 5727 5724 5722 5720 5718 5715 5714 5712 5711 5708 5705 5701 5699 5695 5695 5694 5694 5693 5692 5690 5686 5683 5680 5678 5677 5675 5676
5767 5767 5764 5760 5757 5756 5753 5747 5743 5738 5738 5736 5733 5731 5728 5724 5721 5718 5714 5712 5710 5709 5707 5706 5705 5703 5700 5696 5693 5689 5688 5687 5686 5686 5685 5684 5680 5677 5674 5672 5671 5670 5669
5754 5753 5750 5747 5746 5745 5740 5735 5731 5730 5728 5726 5723 5721 5719 5717 5716 5711 5708 5706 5704 5702 5701 5699 5698 5697 5695 5691 5687 5684 5681 5680 5678 5678 5679 5677 5674 5671 5669 5667 5666 5665 5663
5741 5740 5738 5735 5733 5732 5729 5723 5722 5720 5717 5714 5712 5710 5709 5708 5707 5703 5700 5699 5697 5696 5695 5693 5691 5690 5689 5685 5682 5678 5675 5673 5671 5672 5671 5669 5666 5664 5663 5662 5660 5658 5656
5729 5727 5724 5721 5719 5719 5718 5715 5713 5710 5706 5703 5701 5700 5699 5697 5697 5696 5694 5692 5690 5689 5688 5686 5684 5683 5681 5677 5674 5671 5669 5666 5665 5663 5662 5661 5660 5659 5657 5656 5654 5652 5650
5718 5715 5711 5709 5707 5707 5705 5704 5702 5699 5695 5693 5692 5691 5691 5689 5687 5687 5686 5685 5684 5682 5679 5678 5677 5674 5671 5667 5664 5662 5660 5658 5656 5654 5654 5654 5654 5652 5652 5651 5649 5647 5645
5706 5703 5700 5698 5696 5695 5694 5693 5692 5689 5685 5683 5682 5682 5682 5681 5680 5678 5678 5677 5676 5674 5672 5670 5667 5666 5662 5659 5657 5655 5652 5650 5647 5645 5647 5646 5645 5644 5643 5642 5641 5639 5637